Weather History for Tucson Davis Monthan, AZ

Change the Weather History Date:

Sunday, December 29, 2013

  Actual Average Record
Temperature  
Mean Temperature 52 °F -  
Max Temperature 62 °F 61 °F 76 °F (1955)
Min Temperature 41 °F 37 °F 20 °F (1988)
Degree Days  
Heating Degree Days 14    
Growing Degree Days 2 (Base 50)    
Moisture  
Dew Point 29 °F    
Average Humidity 45    
Maximum Humidity 64    
Minimum Humidity 26    
Precipitation  
Precipitation 0.00 in - - ()
Sea Level Pressure  
Sea Level Pressure 29.98 in    
Wind  
Wind Speed 6 mph (SSE)    
Max Wind Speed 13 mph    
Max Gust Speed -    
Visibility 10 miles    
Events      
Averages and records for this station are not official NWS values.
T = Trace of Precipitation, MM = Missing Value Source: NWS Daily Summary

Daily Weather History Graph

Daily Weather History Graph

Search for Another Location

Airport:

Trip Planner

Search our weather history database for the weather conditions in past years. The results will help you decide how hot, cold, wet, or windy it might be!

Date:

Astronomy

Dec. 29, 2013 Rise Set
Actual Time 7:23 AM MST 5:27 PM MST
Civil Twilight 6:56 AM MST 5:54 PM MST
Nautical Twilight 6:26 AM MST 6:25 PM MST
Astronomical Twilight 5:56 AM MST 6:55 PM MST
Moon 4:15 AM MST 3:05 PM MST
Length of Visible Light 10h 58m
Length of Day
10h 04m
Waning Crescent, 10% of the Moon is Illuminated
Dec 29
Waning Crescent
Jan 1
New
Jan 7
First Quarter
Jan 15
Full
Jan 23
Last Quarter

Hourly Weather History & Observations

Time (MST) Temp. Windchill Dew Point Humidity Pressure Visibility Wind Dir Wind Speed Gust Speed Precip Events Conditions
12:58 AM 48.2 °F - 30.4 °F 50% 29.92 in 10.0 mi SSE 5.8 mph - N/A   Mostly Cloudy
1:58 AM 47.3 °F - 30.4 °F 52% 29.91 in 10.0 mi SE 5.8 mph - N/A   Scattered Clouds
2:58 AM 46.2 °F 45.0 °F 28.8 °F 51% 29.91 in 10.0 mi SE 3.5 mph - N/A   Scattered Clouds
3:58 AM 46.2 °F 45.0 °F 28.9 °F 51% 29.91 in 10.0 mi East 3.5 mph - N/A   Partly Cloudy
4:58 AM 44.6 °F - 29.3 °F 55% 29.91 in 10.0 mi ESE 2.3 mph - N/A   Clear
5:58 AM 42.8 °F - 29.5 °F 59% 29.92 in 10.0 mi SSE 2.3 mph - N/A   Clear
6:58 AM 41.7 °F 38.0 °F 29.5 °F 62% 29.95 in 10.0 mi SE 5.8 mph - N/A   Clear
7:58 AM 41.4 °F 36.2 °F 29.1 °F 62% 29.97 in 10.0 mi SE 8.1 mph - N/A   Clear
8:58 AM 46.0 °F 44.8 °F 30.0 °F 54% 29.99 in 10.0 mi East 3.5 mph - N/A   Clear
9:58 AM 53.1 °F - 28.4 °F 39% 29.99 in 10.0 mi Calm Calm - N/A   Clear
10:58 AM 56.7 °F - 28.0 °F 33% 29.99 in 10.0 mi WNW 3.5 mph - N/A   Clear
11:58 AM 57.6 °F - 28.0 °F 32% 29.96 in 10.0 mi West 2.3 mph - N/A   Clear
12:58 PM 60.6 °F - 25.9 °F 27% 29.94 in 10.0 mi Variable 5.8 mph - N/A   Clear
1:58 PM 62.1 °F - 26.2 °F 26% 29.92 in 10.0 mi NW 5.8 mph - N/A   Clear
2:58 PM 62.6 °F - 26.6 °F 26% 29.92 in 10.0 mi NW 9.2 mph - N/A   Clear
3:58 PM 62.4 °F - 27.3 °F 26% 29.94 in 10.0 mi NNW 12.7 mph - N/A   Clear
4:58 PM 60.1 °F - 29.8 °F 32% 29.96 in 10.0 mi NW 11.5 mph - N/A   Clear
5:58 PM 55.9 °F - 29.7 °F 37% 30.00 in 10.0 mi NNW 12.7 mph - N/A   Clear
6:58 PM 54.7 °F - 28.4 °F 36% 30.02 in 10.0 mi NW 10.4 mph - N/A   Clear
7:58 PM 52.0 °F - 29.3 °F 42% 30.06 in 10.0 mi Calm Calm - N/A   Clear
8:58 PM 48.4 °F - 29.5 °F 48% 30.07 in 10.0 mi SSW 4.6 mph - N/A   Clear
9:58 PM 45.5 °F 41.8 °F 30.4 °F 56% 30.09 in 10.0 mi South 6.9 mph - N/A   Clear
10:58 PM 43.7 °F 38.6 °F 30.9 °F 61% 30.11 in 10.0 mi SE 9.2 mph - N/A   Clear
11:58 PM 42.6 °F 37.2 °F 31.3 °F 64% 30.11 in 10.0 mi SE 9.2 mph - N/A   Clear